Location: Abundant Grace Fellowship
(35.0349°N, 90.0924°W)
Time: 20:45:41
(UTC+00:00)

Cosmos 2082 Rocket - Pass Details

Date: 18 January 2026
Orbit: 832 x 853 km, 71.0° (Epoch: 10 February)

Event Time Altitude Azimuth Distance (km) Brightness Sun altitude
Exits shadow 10:59:28 - 357° (N) 2,820 4.8 -25.8°
Reaches altitude 10° 11:00:33 10° 3° (N) 2,472 4.6 -25.6°
Maximum altitude 11:05:20 27° 60° (ENE) 1,569 4.1 -24.6°
Drops below altitude 10° 11:10:06 10° 117° (ESE) 2,471 5.6 -23.7°
Sets 11:12:55 0° 130° (SE) 3,405 6.3 -23.1°
